Tracking 21473 objects as of 27-Sep-2020
HD Live streaming from Space Station
objects crossing your sky now

USA 207

Track USA 207 now!
USA 207 is classified as:


NORAD ID: 35815
Int'l Code: 2009-047A
Perigee: 35,779.7 km
Apogee: 35,808.8 km
Inclination: 0.1 °
Period: 1,436.1 minutes
Semi major axis: 42165 km
RCS: Unknown
Launch date: September 8, 2009
Source: United States (US)
Launch site: AIR FORCE EASTERN TEST RANGE (AFETR)

USA 207 is an U.S. government communications satellite
aabbcc
Your satellite tracking list
Your tracking list is empty




NASA's NSSDC Master Catalog

Two Line Element Set (TLE):
1 35815U 09047A   20171.88240161 0.00000000  00000-0  00000-0 0    06
2 35815   0.0850 273.6987 0003453 208.4405 151.5519  1.00270000    04
Source of the keplerian elements: McCants